Погода в Лопбури

Таиланд     14°47′39″N   100°38′14″E
темп.,
°C
ветер,
м/с
пор.,
м/с
влажн.,
%
обл.,
%
осадки,
мм/ч
давл.,
гПа
погр.,
м
8 мая, сб
сб801:00+26з1181100 1.4 101025
04:00+26з118372 0.1 100921
07:00+27всв007677 0.1 1010141
10:00+33зсз115546 0.0 1011892
13:00+36з1142100 0.0 10081996
16:00+36юз1239100 0.0 10052231
19:00+27сз148284 6.2 1007136
22:00+27всв2278100 6.6 1010125
9 мая, вс
вс901:00+27ююв237847 7.4 1008126
04:00+27с118199 0.3 100824
07:00+27всв1176100 0.3 1010150
10:00+32зюз116034 0.0 1010967
13:00+35зюз22468 0.0 10071903
16:00+36юз124094 0.1 10052025
19:00+33ююв365288 0.1 1005225
22:00+30ююз266169 0.0 1008242
10 мая, пн
пн1001:00+28юз2269100 0.1 100770
04:00+28ююв1375100 0.0 1006143
07:00+28ююв36779 0.0 1008324
10:00+33ю45546 0.0 10091310
13:00+37ююз433938 0.0 10062619
16:00+37юз333671 0.0 10042294
19:00+32ююв510515 0.0 1005324
22:00+30ю495697 0.0 1007343
11 мая, вт
вт1101:00+28ю510717 0.0 1006438
04:00+27ю5108083 0.0 1006481
07:00+28ююв48776 0.0 1008423
10:00+33ю555532 0.0 10091145
13:00+37ююз443930 0.0 10062508
16:00+36ю344197 0.1 1003824
19:00+32ююв5105375 0.1 1004331
22:00+30ю5105633 0.0 1007629
12 мая, ср
ср1201:00+29ю510715 0.0 1006560
04:00+28ю510795 0.0 1005514
07:00+28ю48765 0.0 1007435
10:00+34ююз56545 0.0 10081238
13:00+37ююз444088 0.0 10052612
16:00+35ююв4646100 0.2 1003476
19:00+32ю595665 0.2 1004307
22:00+30ю510623 0.0 1005392